Wind_Speed
6 6 6 6 6 6 6 6 7 8 8 8 8 8 9 9 9 8 8 8 7 7 6 6 6 4 4 3 3 3 2 2 2 2 3 2 3 3 3 3 4 4 4
7 6 7 7 7 7 7 8 8 8 9 9 9 9 9 9 9 9 8 8 8 8 8 7 7 6 5 4 4 3 3 2 3 3 3 3 3 3 3 4 3 3 4
7 7 7 7 8 8 9 9 8 9 9 10 10 10 9 9 9 8 8 8 8 8 8 8 7 6 6 5 4 4 3 3 3 4 4 4 4 4 4 5 5 5 5
8 8 8 8 8 9 9 9 10 10 10 10 11 11 10 10 9 9 9 9 9 9 8 8 8 7 7 6 6 5 5 5 4 4 4 4 5 5 5 5 5 5 5
9 9 9 9 9 10 11 11 11 11 11 11 11 11 11 10 10 10 10 10 9 9 9 8 8 8 8 7 7 6 6 5 5 5 5 5 5 5 5 6 6 6 6
10 11 11 11 11 11 12 12 12 12 12 12 12 12 11 11 10 10 10 10 10 10 9 9 9 9 9 8 8 7 7 6 6 6 6 6 5 6 6 7 7 7 7
11 12 12 12 12 12 13 13 13 12 13 13 13 12 12 12 11 11 11 11 10 11 10 10 10 10 10 9 9 8 8 7 7 7 7 7 7 7 6 7 7 7 7
12 11 12 13 13 14 14 14 14 14 13 13 13 13 13 12 12 11 11 11 11 11 11 11 10 10 10 10 10 9 9 8 8 8 7 8 8 8 7 7 8 8 8
12 12 13 14 13 15 15 15 15 15 14 14 14 14 13 13 13 12 12 12 12 11 11 12 11 10 10 10 9 9 9 8 8 8 8 8 8 9 9 9 10 10 9
13 14 14 14 14 15 16 16 15 15 15 15 14 14 14 14 14 13 13 13 12 12 12 11 12 11 11 10 10 10 10 9 9 9 9 9 10 10 10 10 10 11 11
15 15 15 15 15 15 15 16 16 15 16 15 15 15 15 14 14 14 14 13 13 13 12 12 12 12 12 11 11 10 10 10 11 10 10 11 11 11 11 11 11 11 11
16 16 16 16 16 15 15 16 16 16 16 16 16 15 16 15 14 14 15 14 14 14 13 13 13 12 12 11 11 11 12 12 12 12 12 12 12 13 13 13 12 12 12
17 16 16 16 16 16 16 16 17 17 17 16 16 16 15 15 15 15 15 14 14 14 14 14 13 12 12 12 12 12 13 13 13 13 12 13 13 13 14 14 14 14 14
18 17 16 16 16 17 17 17 17 18 18 16 16 17 16 15 15 15 16 15 15 15 15 14 13 13 13 12 13 13 13 13 13 13 13 14 14 14 15 15 16 16 16
19 18 18 17 17 17 17 17 17 17 17 16 16 16 16 16 15 15 16 16 15 15 15 14 14 13 14 13 13 14 13 14 14 14 15 15 15 15 16 17 17 17 18
18 19 18 17 17 17 16 16 17 18 18 17 15 14 14 15 15 15 16 15 15 15 14 14 14 15 15 15 14 14 14 14 15 16 17 17 17 17 17 18 18 18 19
18 18 18 17 16 15 15 16 17 16 16 16 14 14 14 14 15 15 15 15 16 15 15 14 15 14 15 16 15 15 15 15 16 17 17 17 18 18 18 18 19 19 19
19 18 17 16 16 15 15 15 17 16 15 15 15 14 14 14 14 14 14 15 15 16 16 15 15 15 16 16 16 16 16 16 16 17 17 18 19 19 19 19 19 19 19
18 17 16 17 16 16 15 15 16 16 15 15 15 15 14 14 15 15 14 15 16 16 16 17 16 17 17 17 17 16 17 17 17 17 18 18 19 19 19 19 19 19 20
17 16 16 17 16 16 16 15 14 14 14 14 14 14 14 14 14 15 14 15 15 15 15 16 17 17 17 17 17 17 18 18 18 18 18 18 18 19 19 19 20 20 20
18 17 16 16 16 16 16 15 14 13 13 13 13 13 13 14 14 15 15 15 15 15 15 15 16 17 18 18 17 18 18 19 19 18 19 19 19 20 20 20 21 21 21
17 17 17 17 16 16 15 15 14 14 13 13 13 13 14 14 14 14 15 15 14 15 16 16 16 17 18 19 19 19 19 20 19 19 19 20 19 20 20 21 21 21 21
17 17 16 16 16 15 14 14 14 14 14 13 13 14 15 15 15 15 15 16 15 15 16 16 16 17 18 18 19 19 20 20 20 20 20 20 20 20 20 21 21 20 20
15 15 16 16 15 15 14 15 14 14 13 14 14 15 15 16 17 17 16 16 16 15 15 16 17 17 18 18 19 19 20 20 20 21 21 21 20 20 20 21 21 20 20
13 14 15 16 16 15 14 15 15 15 14 14 15 15 16 16 16 17 17 17 16 16 16 16 17 17 18 19 19 19 20 21 21 21 21 21 21 20 20 20 21 20 20
13 13 15 15 15 15 14 14 15 15 14 15 15 16 16 16 16 16 16 16 17 17 17 17 17 18 18 18 18 19 20 20 20 21 21 21 21 20 20 20 20 20 20
Wind_Direction
313 315 316 308 299 293 290 291 291 288 291 295 294 294 294 294 295 296 295 294 296 298 299 299 299 298 294 294 290 289 286 289 289 284 281 280 267 258 246 230 218 209 203
307 309 306 302 298 292 287 283 284 284 285 286 288 287 291 290 290 292 293 295 297 297 297 297 299 297 293 291 289 284 281 284 283 279 275 268 265 270 262 245 234 221 225
302 304 302 297 296 294 290 283 279 279 280 282 281 284 288 290 288 289 292 294 295 297 298 293 294 294 290 286 282 282 285 288 286 280 275 270 267 268 263 255 242 237 241
299 300 298 294 292 293 290 284 281 280 279 279 280 281 282 285 286 290 292 292 292 293 291 289 290 288 287 283 281 281 285 286 288 285 278 272 268 267 264 260 253 248 242
298 297 294 291 289 288 287 285 284 283 281 279 279 278 279 280 283 286 288 285 287 289 286 285 286 284 282 281 281 281 281 281 285 284 281 275 272 267 265 261 254 247 242
291 289 289 289 288 286 286 286 283 281 280 279 276 276 277 278 279 280 281 283 284 285 283 281 282 280 278 281 281 280 281 284 284 283 282 282 276 270 272 266 255 245 241
291 288 288 289 288 286 284 283 281 279 278 279 276 273 273 273 274 275 278 281 283 283 280 280 280 278 280 281 280 279 280 282 281 278 278 277 279 277 275 264 261 253 245
294 293 293 290 288 285 284 281 281 278 276 277 276 273 272 274 275 273 276 279 280 280 279 279 277 275 278 279 280 279 278 280 280 274 273 272 272 276 275 265 260 259 254
292 291 292 289 286 284 283 279 276 275 274 275 273 273 273 275 274 271 272 276 276 276 276 276 274 273 275 276 277 276 275 277 279 280 277 274 272 272 273 267 261 259 257
291 289 288 288 287 287 282 279 277 276 273 272 272 274 273 272 272 272 272 273 274 274 274 273 272 270 269 270 272 275 276 274 276 278 277 277 276 272 271 271 268 263 259
289 290 288 286 286 286 283 280 279 276 274 272 271 272 271 270 270 270 270 273 274 272 270 269 270 268 265 267 271 275 277 277 277 276 275 275 274 273 273 272 269 266 262
292 291 290 285 282 284 285 282 280 278 277 274 270 269 269 266 267 268 270 271 274 271 266 265 267 265 263 268 271 273 274 274 275 275 274 277 277 274 272 271 270 268 265
292 289 287 282 281 280 281 281 281 278 275 270 270 266 266 262 262 265 268 269 269 268 267 266 266 265 266 266 271 273 272 272 274 274 276 278 278 276 275 272 270 269 266
295 289 284 278 278 279 280 278 280 277 272 267 269 267 264 261 261 263 265 266 266 267 265 264 264 265 265 267 270 274 274 271 273 273 273 275 278 279 277 274 272 270 268
293 287 283 276 275 276 278 277 275 275 276 269 269 265 261 261 261 261 262 262 263 266 265 265 264 264 264 267 271 274 275 275 273 274 276 277 278 279 278 275 274 272 269
294 290 286 279 275 276 279 278 277 273 272 268 265 261 263 261 260 259 258 259 260 261 262 264 262 263 264 266 269 272 275 274 275 278 279 278 278 278 278 275 275 274 271
295 289 285 283 280 280 279 277 276 274 273 266 264 262 264 263 261 259 255 257 258 259 263 261 263 265 266 268 270 272 275 276 276 277 279 279 281 278 277 276 275 274 271
297 290 285 283 281 279 277 276 276 275 272 266 263 261 263 262 260 257 254 256 257 259 260 262 264 267 268 270 271 271 275 278 281 278 278 280 282 280 278 277 274 274 273
297 290 284 281 280 279 277 276 276 273 268 264 263 260 259 257 256 255 258 258 258 259 261 263 264 268 271 271 270 272 275 278 280 279 279 280 281 278 276 276 274 273 273
293 284 280 279 278 279 278 277 278 272 264 260 261 259 255 254 257 256 258 258 259 260 263 266 266 267 269 269 269 273 275 277 279 278 280 282 281 278 275 277 274 272 273
290 281 278 279 279 277 275 274 275 274 261 263 264 258 255 257 259 257 259 261 262 261 264 267 266 267 267 267 269 274 278 278 280 280 281 282 280 279 276 277 276 272 272
291 282 277 275 276 275 272 273 272 269 270 269 266 263 256 257 256 258 261 263 264 265 265 267 267 270 270 268 270 275 276 278 280 280 280 280 279 278 277 276 277 274 271
289 282 278 275 270 270 270 272 270 269 268 269 264 263 262 261 261 263 262 263 266 268 268 269 269 270 270 272 273 273 277 278 278 280 280 281 280 279 278 277 276 274 272
290 282 276 275 271 269 270 270 269 266 266 267 266 266 263 261 260 262 262 263 265 269 270 272 272 273 273 275 276 276 279 279 282 280 279 282 281 280 280 281 278 273 272
292 286 280 277 275 272 272 273 270 268 265 266 267 264 261 259 260 261 263 265 266 268 271 274 276 274 274 276 277 279 279 280 282 281 279 280 281 282 283 282 280 277 273
290 288 283 280 278 274 272 272 272 270 267 267 267 263 259 258 261 264 264 267 267 268 270 273 275 274 274 275 277 280 281 281 281 281 282 280 279 281 282 281 279 278 276
Height
5901 5900 5900 5900 5899 5899 5899 5899 5899 5899 5898 5898 5898 5897 5897 5896 5896 5895 5895 5894 5894 5893 5892 5892 5891 5891 5890 5889 5889 5888 5888 5888 5887 5886 5886 5885 5885 5885 5885 5885 5885 5885 5885
5900 5899 5900 5899 5899 5898 5898 5898 5898 5898 5897 5897 5896 5896 5896 5895 5895 5894 5894 5893 5893 5892 5892 5891 5891 5890 5890 5889 5888 5888 5887 5887 5887 5886 5885 5885 5885 5884 5884 5884 5884 5884 5884
5899 5898 5898 5898 5898 5897 5897 5897 5896 5896 5896 5895 5895 5895 5894 5894 5894 5893 5893 5893 5892 5892 5891 5890 5890 5889 5889 5888 5888 5887 5887 5886 5886 5885 5885 5884 5884 5883 5883 5883 5883 5883 5883
5897 5897 5897 5897 5896 5896 5895 5895 5895 5894 5894 5894 5894 5893 5893 5893 5893 5892 5892 5892 5891 5890 5890 5889 5889 5888 5888 5887 5887 5886 5886 5885 5885 5884 5884 5884 5883 5883 5882 5882 5882 5882 5883
5896 5896 5895 5895 5895 5894 5894 5893 5893 5893 5893 5892 5892 5892 5891 5891 5891 5891 5890 5890 5890 5889 5888 5888 5887 5887 5886 5886 5886 5885 5885 5884 5884 5883 5883 5883 5882 5882 5881 5881 5881 5881 5882
5894 5894 5893 5893 5893 5892 5892 5892 5891 5891 5891 5890 5890 5890 5889 5889 5889 5889 5889 5888 5888 5888 5887 5886 5886 5885 5885 5884 5884 5884 5884 5883 5883 5882 5882 5881 5881 5881 5880 5880 5880 5880 5880
5892 5892 5891 5891 5890 5890 5890 5889 5889 5888 5888 5888 5887 5887 5887 5887 5887 5887 5887 5886 5886 5885 5885 5885 5884 5884 5883 5883 5883 5882 5882 5882 5881 5881 5881 5880 5880 5880 5879 5879 5879 5879 5879
5889 5889 5889 5888 5888 5887 5887 5886 5886 5886 5885 5885 5885 5885 5885 5885 5885 5885 5885 5884 5884 5883 5883 5882 5882 5882 5882 5881 5881 5880 5880 5880 5880 5879 5879 5879 5879 5878 5878 5878 5878 5878 5878
5886 5886 5886 5884 5884 5884 5884 5883 5883 5883 5882 5882 5882 5882 5882 5882 5882 5882 5882 5882 5882 5881 5880 5880 5880 5880 5879 5879 5879 5879 5879 5879 5878 5878 5878 5877 5877 5877 5877 5876 5876 5876 5876
5883 5883 5882 5881 5880 5881 5880 5880 5879 5879 5879 5879 5879 5880 5879 5879 5879 5879 5879 5879 5879 5879 5878 5878 5878 5877 5877 5877 5877 5877 5876 5876 5876 5876 5876 5875 5875 5875 5875 5874 5874 5874 5874
5880 5880 5879 5879 5878 5878 5877 5877 5876 5876 5876 5876 5876 5876 5876 5876 5876 5876 5876 5876 5876 5876 5876 5875 5875 5875 5875 5874 5874 5874 5874 5874 5874 5873 5873 5873 5872 5872 5872 5871 5871 5871 5871
5876 5876 5875 5875 5875 5875 5874 5873 5872 5872 5872 5873 5872 5873 5873 5873 5873 5873 5873 5873 5873 5873 5873 5873 5872 5872 5872 5872 5872 5872 5872 5871 5871 5871 5870 5870 5870 5869 5869 5868 5868 5868 5868
5872 5872 5871 5871 5871 5871 5870 5870 5869 5868 5868 5868 5868 5868 5869 5869 5869 5870 5870 5870 5869 5870 5869 5869 5869 5869 5869 5869 5869 5869 5868 5868 5868 5867 5867 5867 5867 5866 5866 5865 5865 5865 5865
5868 5868 5867 5867 5867 5866 5866 5866 5865 5864 5863 5864 5864 5864 5864 5865 5865 5866 5866 5866 5866 5866 5866 5866 5866 5866 5866 5866 5866 5866 5865 5865 5865 5864 5864 5864 5863 5863 5862 5862 5861 5861 5861
5863 5863 5863 5863 5862 5862 5862 5861 5861 5860 5859 5859 5860 5860 5860 5861 5861 5862 5862 5862 5862 5863 5863 5863 5863 5863 5863 5863 5863 5862 5862 5862 5861 5860 5860 5860 5859 5859 5858 5858 5857 5857 5857
5859 5859 5858 5858 5858 5857 5857 5856 5856 5855 5855 5855 5855 5856 5857 5857 5857 5858 5858 5858 5859 5859 5860 5860 5860 5859 5859 5859 5859 5859 5858 5858 5857 5857 5856 5855 5855 5854 5854 5853 5853 5853 5852
5855 5854 5853 5853 5853 5853 5852 5851 5851 5850 5850 5851 5851 5852 5852 5853 5853 5853 5854 5855 5855 5856 5856 5856 5856 5856 5856 5856 5855 5855 5854 5854 5854 5853 5852 5851 5850 5849 5849 5848 5848 5847 5847
5850 5849 5848 5848 5848 5848 5848 5847 5847 5846 5846 5847 5848 5848 5848 5848 5849 5850 5851 5851 5852 5852 5852 5852 5852 5852 5852 5852 5852 5851 5850 5850 5850 5849 5848 5846 5845 5844 5843 5843 5842 5842 5842
5846 5845 5844 5844 5844 5844 5844 5843 5842 5842 5842 5843 5843 5844 5844 5845 5845 5846 5847 5847 5847 5848 5848 5848 5848 5848 5848 5848 5847 5847 5846 5845 5845 5844 5843 5842 5840 5839 5838 5837 5837 5837 5837
5842 5841 5840 5840 5839 5839 5839 5839 5838 5837 5837 5838 5839 5839 5840 5841 5842 5842 5842 5843 5843 5843 5843 5844 5844 5844 5844 5843 5842 5842 5842 5841 5840 5839 5838 5836 5835 5834 5833 5832 5831 5831 5831
5837 5836 5836 5835 5835 5835 5835 5835 5834 5833 5834 5834 5835 5835 5836 5837 5837 5838 5838 5838 5839 5839 5839 5839 5839 5839 5839 5839 5838 5838 5837 5836 5835 5834 5833 5831 5830 5828 5827 5827 5826 5825 5825
5832 5831 5830 5831 5831 5831 5831 5831 5831 5830 5830 5831 5832 5832 5832 5833 5833 5834 5834 5834 5834 5834 5835 5835 5835 5834 5834 5834 5833 5833 5832 5832 5830 5829 5828 5826 5825 5823 5822 5821 5820 5819 5819
5827 5826 5826 5826 5827 5827 5827 5827 5827 5827 5827 5828 5828 5828 5829 5829 5830 5830 5830 5830 5830 5830 5830 5830 5830 5830 5829 5829 5828 5828 5827 5826 5825 5824 5823 5821 5820 5818 5817 5815 5814 5814 5813
5824 5823 5823 5823 5823 5823 5823 5823 5824 5824 5824 5824 5824 5824 5824 5825 5826 5826 5826 5826 5826 5825 5825 5825 5825 5825 5824 5824 5823 5823 5822 5821 5820 5819 5818 5816 5814 5813 5811 5810 5809 5809 5808
5821 5820 5820 5819 5819 5819 5819 5820 5820 5820 5820 5820 5820 5820 5820 5821 5821 5821 5821 5821 5821 5821 5821 5821 5820 5820 5819 5819 5818 5817 5816 5815 5814 5813 5812 5811 5809 5807 5806 5805 5804 5803 5802
5818 5817 5816 5815 5815 5815 5815 5816 5816 5815 5815 5816 5816 5816 5816 5816 5816 5816 5816 5816 5816 5816 5816 5816 5815 5815 5814 5814 5813 5812 5811 5810 5808 5807 5806 5804 5803 5802 5800 5799 5798 5797 5796